Location: ?p L?c B�nh
(11.8167°N, 108.5667°E)
Time: 09:06:36
(UTC+00:00)

Daily predictions for brighter satellites

Satellite Brightness Start Highest point End
(mag) Time Altitude Azimuth Time Altitude Azimuth Time Altitude Azimuth
Spelda 30 3.8 12:02:31 10° SW 12:04:21 18° S 12:04:43 18° SSE
Cosmos 1743 4.4 12:02:21 10° NE 12:04:29 16° ENE 12:04:29 16° ENE
Cosmos 44 Rocket 4.1 12:03:54 10° N 12:08:25 34° ENE 12:10:40 23° ESE
STARLINK-1180 4.1 12:04:24 10° NW 12:08:26 55° SW 12:11:24 17° SSE
Cosmos 1536 2.8 12:07:45 10° N 12:11:49 86° W 12:15:52 10° S
DNEPR-1 R/B 3.9 12:08:10 10° NNW 12:13:01 53° ENE 12:15:06 28° SE
NOSS 2-2 (D) 4.1 12:09:24 10° S 12:16:38 - NE 12:13:05 29° ESE
STARLINK-1153 4.4 12:09:27 10° NW 12:13:24 47° WSW 12:16:12 18° SSE
STARLINK-1157 3.7 12:11:21 10° NNW 12:14:21 36° NE 12:14:53 33° E
Ariane Rocket 3.6 12:12:01 24° ESE 12:14:22 36° ENE 12:18:59 10° N
Cosmos 1072 Rocket 4.4 12:08:18 10° N 12:14:34 72° E 12:20:44 10° S
GPS 2-14 Rocket1 3.4 12:11:35 10° SW 12:15:26 36° SSE 12:16:22 32° SE
Cosmos 1464 Rocket 4.0 12:09:21 10° N 12:15:40 66° E 12:21:47 11° SSE
CSL-04 Rocket 4.1 12:12:39 10° S 12:18:02 64° WSW 12:23:29 10° NNW
Cosmos 371 Rocket 3.3 12:16:31 10° S 12:21:13 56° ESE 12:25:57 10° NNE
HJ-1C 3.7 12:19:18 19° S 12:21:32 63° W 12:24:48 10° NNW
H-2A R/B 2.0 12:19:06 24° SSE 12:21:59 58° ENE 12:26:56 10° N
Cosmos 1666 3.6 12:20:42 10° NNW 12:24:21 47° W 12:27:59 10° SSW
Cosmos 1908 Rocket 3.9 12:22:39 10° NNE 12:26:54 44° E 12:27:41 40° ESE
SJ-11-01 4.3 12:23:34 17° S 12:27:12 85° W 12:31:54 10° NNW
Cosmos 1515 3.5 12:24:43 20° S 12:27:19 83° E 12:31:06 10° N
Starlink 7 placeholder 3.4 12:26:06 10° SW 12:28:24 42° WNW 12:28:24 42° WNW
NOSS 2-2 (E) 3.0 12:26:27 10° SSW 12:30:37 74° ESE 12:34:11 10° NNE
Intelsat 5-1 Rocket 2.6 12:31:23 10° WNW 12:33:28 24° NNW 12:33:52 23° N
SL-08 RB Rocket 4.2 12:33:49 39° E 12:34:05 39° ENE 12:38:21 10° N
ARIANE 44P R/B 3.4 12:25:21 10° WSW 12:36:31 42° S 12:37:21 38° SSE
Okean 1-7 4.0 12:33:18 10° SSW 12:37:26 46° W 12:41:31 10° NNW
SL-4 R/B 2.0 12:34:14 10° SSW 12:38:33 72° SE 12:43:11 10° NE
Meteor 1-19 Rocket 4.5 12:33:28 10° SSW 12:38:55 67° W 12:44:31 10° N
STARLINK-1135 4.5 12:36:53 10° NNW 12:40:27 35° NE 12:40:27 35° NE
Tsikada Rocket 4.5 12:37:54 10° SSW 12:44:01 60° W 12:50:06 10° N
STARLINK-1141 4.4 12:41:46 10° NNW 12:45:15 39° NE 12:45:15 39° NE
Centaur AC-119 2.7 12:37:07 10° WNW 12:47:30 71° SSW 12:48:04 61° SSE
Meteor 2-4 Rocket 3.5 12:46:06 26° S 12:49:17 85° E 12:54:38 10° N
ARGOS 3.1 12:48:15 40° S 12:50:17 87° W 12:55:40 10° NNW
STARLINK-1140 4.3 12:46:39 10° NNW 12:50:01 43° NNE 12:50:01 43° NNE
USA 267 3.2 12:49:10 38° SSE 12:51:56 81° SW 12:58:29 10° NW
IRS-1A Rocket 4.3 12:51:24 37° S 12:53:54 84° WSW 12:59:42 10° NNW
Cosmos 1607 4.3 12:47:38 10° NNW 12:53:59 62° WSW 12:56:57 32° S
NOSS 2-2 (C) 3.6 12:50:55 10° SSW 12:56:39 32° N 12:58:41 10° NNE
STARLINK-1156 4.3 12:51:33 10° NNW 12:54:47 46° N 12:54:47 46° N
SWIFT 3.5 12:52:07 10° W 12:56:07 38° NNW 12:56:56 34° NNE
Cosmos 2297 3.5 12:54:54 48° S 12:56:26 72° ESE 13:02:04 10° NNE
STARLINK-1148 4.4 12:56:29 10° NNW 12:59:35 47° N 12:59:35 47° N
COSMOS 2406 4.3 12:57:39 10° N 13:01:35 31° NE 13:01:35 31° NE
CZ-2C R/B 4.2 13:01:43 22° SSW 13:04:41 41° W 13:09:50 10° NNW
CZ-2C R/B 3.7 13:01:30 10° N 13:06:49 46° WNW 13:12:05 10° SSW
GPS 2-18 Rocket1 4.4 13:03:50 10° WNW 13:06:32 41° WNW 13:06:32 41° WNW
Cosmos 1833 Rocket 4.5 13:11:10 10° NNE 13:13:17 19° NE 13:13:17 19° NE
CZ-3B Rocket 4.5 13:11:32 10° WNW 13:18:41 78° NNE 23:03:55 10° ESE
Milstar 3 Cent rocket 3.6 13:13:45 10° WSW 13:20:13 65° NNW 13:33:49 10° ENE
Cosmos 407 Rocket 3.7 13:15:07 10° NNW 13:19:50 67° NW 13:19:50 67° NW
Meteor 1-13 Rocket 4.3 13:21:23 73° WNW 13:21:23 73° WNW 13:26:45 10° N
GOES 2 Rocket 4.5 13:19:54 10° NW 13:27:58 54° NNE 13:28:20 54° NNE
Hubble Space Telescope 3.4 13:31:51 10° NW 13:33:12 17° NNW 13:33:12 17° NNW
Cosmos 1140 Rocket 4.5 13:30:16 10° NNW 13:33:45 43° NNW 13:33:45 43° NNW
ASC 2 Rocket 4.3 13:36:40 10° W 13:41:24 60° NW 13:41:24 60° NW
Resurs 01 Rocket 4.4 13:57:59 15° NNW 13:57:59 15° NNW 13:58:44 10° NNW
Ariane H10+ 4.4 14:03:58 10° W 14:34:16 68° SW 14:34:16 68° SW
Cosmos 2360 Rocket 4.2 19:12:11 23° NE 19:12:11 23° NE 19:14:31 10° NE
CZ-3A R/B 4.4 19:14:29 19° E 19:14:29 19° E 19:17:36 10° E
Cosmos 2219 Rocket 4.4 19:30:13 16° ESE 19:30:42 16° ESE 19:34:05 10° ENE
Lacrosse 5 rocket 4.4 19:44:56 11° E 19:44:56 11° E 19:45:24 10° E
SL-8 Rocket 4.2 19:51:32 68° NNE 19:51:32 68° NNE 19:57:01 10° N
Cosmos 2322 Rocket 4.2 19:55:05 17° NNW 19:55:05 17° NNW 19:56:39 10° NNW
USA 234 3.2 19:46:50 10° NE 19:53:00 79° N 19:53:00 79° N
Cosmos 2263 Rocket 3.6 19:52:30 10° N 19:57:32 35° ENE 20:02:32 10° SE
BREEZE-M TANK 4.2 20:12:29 29° NNW 20:12:29 29° NNW 20:14:20 10° NNE
IUS-26 SRM-1 4.4 20:17:12 30° ESE 20:17:12 30° ESE 20:21:02 10° ENE
COSMOS 2428 3.5 20:15:08 37° SSE 20:16:49 48° ESE 20:22:14 10° NNE
Meteosat 1 Rocket2 4.0 20:17:05 61° S 20:17:51 66° SSE 20:26:30 10° ENE
OAO 1 4.4 20:22:08 86° SW 20:22:08 86° SW 20:27:39 10° SE
Cosmos 2227 4.1 20:20:55 10° NNW 20:26:41 89° WSW 20:31:36 15° SSE
ARIANE 5 R/B 4.1 20:25:30 39° SSW 20:27:41 47° SSE 21:32:39 10° E
ARIANE 5 DEB (SYLDA) 4.0 20:28:16 40° S 20:28:45 40° SSE 20:41:20 10° ESE
Ariane H10+ 4.3 20:28:22 40° SSW 20:29:56 45° S 20:39:42 10° ESE
Cosmos 1538 Rocket 4.1 20:31:20 55° WNW 20:31:20 55° WNW 20:36:21 10° N
ATLAS 2A CENTAUR R/B 3.5 20:31:20 44° SSW 20:33:13 58° SSE 20:36:41 10° E
Cosmos 2084 Rocket 3.9 20:29:46 10° NNW 20:34:13 65° ENE 20:38:40 10° SSE
Cosmos 1125 Rocket 3.3 20:30:30 10° NNW 20:35:39 66° WSW 20:36:05 63° SW
STARLINK-1027 4.2 20:35:30 46° SE 20:35:47 47° SE 20:39:46 10° NE
Cosmos 2366 rocket 4.2 20:38:39 44° W 20:38:57 44° W 20:44:50 10° NNW
Cosmos 1339 Rocket 4.5 20:32:54 10° N 20:39:03 82° E 20:45:18 10° S
STARLINK-1060 4.0 20:40:15 51° SSE 20:40:44 55° ESE 20:44:45 10° NE
GPS 2-14 Rocket1 2.6 20:41:19 75° ENE 20:41:19 75° ENE 20:44:50 10° ESE
PSLV R/B 3.9 20:40:19 10° N 20:43:49 45° NW 20:43:49 45° NW
Cosmos 1408 Rocket 3.4 20:44:49 66° WSW 20:45:09 69° W 20:49:26 10° N
STARLINK-1030 3.8 20:45:04 55° S 20:45:43 65° SE 20:49:48 10° NE
STARLINK-1236 4.3 20:43:20 10° NNW 20:47:22 53° NE 20:51:24 10° SE
Cosmos 2333 Rocket 2.2 20:47:04 43° SW 20:48:41 61° WNW 20:54:14 10° N
CZ-2C R/B 2.4 20:44:08 10° N 20:49:17 73° WNW 20:51:24 36° SSW
STARLINK-1020 3.6 20:49:51 54° SSW 20:50:41 76° SE 20:54:48 10° NE
Cosmos 2360 Rocket 4.0 20:53:59 14° WNW 20:53:59 14° WNW 20:56:12 10° NW
STARLINK-1052 3.5 20:54:36 50° SSW 20:55:37 88° ESE 20:59:44 10° NE
STARLINK-1269 3.8 20:53:12 10° NNW 20:57:19 73° NE 21:01:26 10° SE
H-2A R/B 3.3 21:01:37 24° WNW 21:01:37 24° WNW 21:04:04 10° NW
Meteor 2-3 Rocket 3.7 20:57:20 27° SSW 21:00:19 59° W 21:05:50 10° N
Cosmos 1821 Rocket 4.0 20:54:15 10° S 21:00:33 87° W 21:06:56 10° N
STARLINK-1200 3.6 20:58:08 10° NW 21:02:16 85° NE 21:06:24 10° SE
PAYLOAD A 4.5 20:59:11 10° N 21:03:34 37° WNW 21:04:53 31° WSW
USA 32 4.0 20:59:11 10° S 21:04:25 88° E 21:09:38 10° N
Landsat 5 4.1 21:04:12 34° WSW 21:04:50 36° W 21:08:58 10° NNW
Cosmos 2112 Rocket 4.3 21:00:19 13° S 21:05:00 68° ESE 21:10:11 10° NNE
STARLINK-1033 3.6 21:04:11 39° SW 21:05:34 69° NW 21:09:39 10° NNE
SAR-Lupe-4 3.4 21:03:25 13° S 21:06:34 78° WSW 21:10:08 10° NNW
STARLINK-1192 3.5 21:03:07 10° NW 21:07:15 83° SW 21:11:23 10° SSE
Ariane H10+ 3.9 21:05:51 23° SSW 21:07:30 31° SSE 21:16:41 10° E
STARLINK-1031 3.7 21:08:58 34° WSW 21:10:32 59° NW 21:14:35 10° NNE
STARLINK-1244 3.5 21:08:06 10° NW 21:12:12 71° SW 21:16:19 10° SSE
Iridium 4 Rocket 3.2 21:07:56 10° S 21:12:19 82° E 21:17:05 10° N
ATLAS 2A CENTAUR R/B 3.7 21:10:26 17° SSW 21:13:06 23° S 21:15:37 10° ESE
Cosmos 2219 Rocket 2.9 21:11:59 25° WSW 21:14:17 34° WNW 21:19:19 10° N
STARLINK-1024 3.9 21:13:46 29° WSW 21:15:32 50° NW 21:19:33 10° NNE
ERBS 2.2 21:12:29 10° NW 21:15:46 59° WSW 21:19:05 10° SSE
ADEOS 4.1 21:11:23 10° N 21:16:12 39° WNW 21:19:17 20° SW
STARLINK-1138 3.5 21:13:06 10° NW 21:17:11 60° SW 21:21:15 10° SSE
CZ-4B R/B 0.9 21:15:41 10° S 21:18:42 74° WSW 21:21:44 10° NNW
CZ-4B R/B 3.1 21:15:13 10° NNE 21:18:45 58° ESE 21:22:16 10° S
Cosmos 1727 Rocket 3.9 21:13:24 10° N 21:19:32 73° W 21:25:41 10° S
GPS 2-17 Rocket1 3.5 21:17:06 20° W 21:19:52 48° NNW 21:24:09 10° ENE
STARLINK-1035 4.1 21:18:31 25° WSW 21:20:28 43° NW 21:24:24 10° NNE
STARLINK-1143 3.7 21:18:06 10° NW 21:22:07 52° SW 21:26:08 10° SSE
SAR-Lupe-1 4.2 21:18:58 10° S 21:22:20 45° WSW 21:25:44 10° NNW
Lacrosse 5 rocket 2.3 21:20:37 22° WSW 21:22:25 32° WNW 21:26:03 10° N
Cosmos 1515 Rocket 4.2 21:18:25 10° N 21:22:41 58° E 21:26:56 10° SSE
CCE 1 Rocket 3.3 21:21:00 23° WSW 21:23:31 85° SSE 21:27:22 10° ENE
Meteor 1-31 Rocket 2.7 21:21:07 10° N 21:24:54 62° WNW 21:28:37 10° SSW
STARLINK-1032 4.3 21:23:19 22° WSW 21:25:27 37° NW 21:29:18 10° NNE
SWIFT 4.3 21:26:38 12° SSW 21:26:39 12° SSW 21:28:23 10° S
STARLINK-1241 3.9 21:23:11 10° NW 21:27:07 44° SW 21:31:03 10° SSE
PEGASUS R/B 3.2 21:24:55 10° NNE 21:27:09 79° ESE 21:29:29 12° SSW
Cosmos 1340 3.4 21:25:32 20° SW 21:27:22 32° W 21:30:45 10° NNW
Sich 1 4.3 21:24:27 10° SSE 21:28:35 43° E 21:32:41 10° NNE
Cosmos 1743 Rocket 4.2 21:27:51 14° SSW 21:31:15 36° W 21:35:19 10° NNW
STARLINK-1239 4.1 21:28:14 10° NW 21:32:04 38° WSW 21:35:55 10° SSE
Cosmos 2344 4.3 21:27:42 15° WSW 21:33:33 34° WNW 21:40:11 10° N
Cosmos 1151 Rocket 3.4 21:29:29 10° NNW 21:33:39 44° W 21:37:49 10° SSW
Meteor PRIRODA 3.7 21:31:48 10° NNE 21:35:26 80° E 21:39:03 10° S
Cosmos 1980 3.7 21:30:13 10° SSW 21:35:52 76° WNW 21:41:31 10° NNE
CZ-4B R/B 4.5 21:31:47 10° N 21:36:00 45° WNW 21:40:17 10° SSW
STARLINK-1240 4.2 21:33:17 10° WNW 21:37:01 33° WSW 21:40:44 10° S
Cosmos 1633 3.8 21:36:57 15° SW 21:38:55 23° W 21:41:47 10° NNW
ATLAS 5 CENTAUR R/B 2.3 21:37:28 14° WSW 21:40:13 29° WNW 21:43:45 10° N
Cosmos 2263 Rocket 3.6 21:37:46 10° WNW 21:41:04 16° WSW 21:44:22 10° SW
STARLINK-1203 4.5 21:38:17 10° WNW 21:41:56 29° WSW 21:45:34 10° S
STARLINK-1216 4.4 21:38:23 10° WNW 21:41:58 29° WSW 21:45:33 10° S
Cosmos 1680 Rocket 4.3 21:39:58 10° SW 21:44:36 32° WNW 21:49:16 10° NNW
Aurora 2 Rocket 2.3 21:43:32 12° SW 21:46:14 46° SSE 21:49:27 10° E
BREEZE-M DEB (TANK) 4.2 21:47:02 10° SW 21:50:36 60° NW 22:02:43 10° NNE
NOSS 0 Rocket 4.5 21:45:52 10° SW 21:51:34 40° WNW 21:57:16 10° N
Cosmos 1346 Rocket 3.9 21:48:35 10° SW 21:51:57 26° W 21:55:19 10° NNW
Cosmos 1484 Rocket 3.9 21:50:04 10° NNW 21:53:28 27° WNW 21:56:53 10° SW
H-2A R/B 2.7 21:49:17 10° N 21:53:38 61° WNW 21:58:05 10° SSW
Cosmos 2228 Rocket 3.3 21:51:02 10° N 21:55:34 79° E 22:00:08 10° S
STARLINK-1054 4.4 21:53:01 10° SSW 21:57:01 51° SE 22:01:02 10° NE
Cosmos 1606 4.4 21:56:46 10° WNW 21:58:51 14° W 22:00:58 10° SW
ARIANE 5 DEB (SYLDA) 4.4 21:48:15 10° WSW 21:59:08 34° SSW 22:03:06 10° SE
USA 229 DEB 4.2 21:52:18 10° NW 21:59:30 46° WSW 22:06:46 10° S
USA 229 4.2 21:52:23 10° NW 21:59:35 46° WSW 22:06:52 10° S
